Погода в Нова Быстрице

Чехия     49°01′07″N   15°06′39″E
темп.,
°C
ветер,
м/с
пор.,
м/с
влажн.,
%
обл.,
%
осадки,
мм/ч
давл.,
гПа
погр.,
м
6 марта, сб
сб601:00−4сз11840 0.0 103321
04:00−3зсз11820 0.0 103333
07:00−3зсз11810 0.0 103426
10:00+2зсз11490 0.0 1034989
13:00+5зсз11400 0.0 10321252
16:00+3сз11420 0.0 10311051
19:00−2ссв116212 0.0 103121
22:00−2ююв126632 0.0 103121
7 марта, вс
вс701:00−3в116216 0.0 103021
04:00−3ююв01600 0.0 102821
07:00−3ююв11580 0.0 102721
10:00+4зюз12370 0.0 1025447
13:00+6зсз23310 0.0 1023869
16:00+5сз234041 0.0 1020682
19:00−1зсз116120 0.0 102022
22:00−2юз11690 0.0 102121
8 марта, пн
пн801:00−2зсз22720 0.0 102128
04:00−3сз12790 0.0 102038
07:00−3зсз138846 0.0 1021143
10:00+1сз357095 0.0 1021849
13:00+3сз345997 0.0 10211020
16:00+3ссз346081 0.0 10201138
19:00−2св118057 0.0 102221
22:00−2в118233 0.0 102221
9 марта, вт
вт901:00−2вюв118267 0.0 102222
04:00−2вюв2285100 0.0 102172
07:00−2вюв2484100 0.0 1021187
10:00+2юв2363100 0.0 1021467
13:00+4ю115799 0.0 1020945
16:00+4ююз116497 0.0 1019837
19:000юз229593 0.0 102159
22:000з249898 0.1 1022237
10 марта, ср
ср1001:00−1з269999 0.2 1023349
04:00−2з129979 0.1 102237
07:00−2з269471 0.1 1023278
10:00+2зсз467589 0.0 1023773
13:00+5з236390 0.0 1022909
16:00+6з135950 0.0 10201144
19:00+2ююз238275 0.0 102079
22:00+2ю2583100 0.0 1020145